﻿_id,日時,平均風速(m/s),平均風向,最大瞬間風速(m/s),最大風速時風向,気温(℃),湿度(%),10分間移動積算雨量(mm),1時間移動積算雨量(mm),日雨量(mm),累計雨量(mm),日射(日積算)(MJ/m2),日照(日積算)(min),現地気圧(hPa),海面気圧(hPa)
1,2019-10-07T00:00:00,0.7,北北西,1.7,西北西,14.9,90.6,0,0,0.5,0.5,11.08,260,1009.3,1023.3
2,2019-10-07T00:01:00,0.6,北,1.4,北北東,14.7,89.8,0,0,0,0.5,0,0,1009.3,1023.3
3,2019-10-07T00:02:00,0.6,北,1.4,北北東,14.9,90.3,0,0,0,0.5,0,0,1009.3,1023.3
4,2019-10-07T00:03:00,0.6,北,1.4,北北東,14.9,90.3,0,0,0,0.5,0,0,1009.3,1023.3
5,2019-10-07T00:04:00,0.6,北北東,1.5,北北東,14.8,89.7,0,0,0,0.5,0,0,1009.3,1023.3
6,2019-10-07T00:05:00,0.7,北北東,1.6,北,14.9,90,0,0,0,0.5,0,0,1009.3,1023.3
7,2019-10-07T00:06:00,0.7,北北東,1.6,北,15,90,0,0,0,0.5,0,0,1009.3,1023.2
8,2019-10-07T00:07:00,0.8,北北東,1.7,北北西,14.9,89.3,0,0,0,0.5,0,0,1009.3,1023.3
9,2019-10-07T00:08:00,0.8,北,2.2,北北東,15,89.6,0,0,0,0.5,0,0,1009.3,1023.2
10,2019-10-07T00:09:00,0.9,北,2.9,北北東,14.8,88.8,0,0,0,0.5,0,0,1009.3,1023.3
11,2019-10-07T00:10:00,0.9,北,2.9,北北東,15,89.2,0,0,0,0.5,0,0,1009.2,1023.1
12,2019-10-07T00:11:00,1,北,2.9,北北東,15,89.4,0,0,0,0.5,0,0,1009.2,1023.1
13,2019-10-07T00:12:00,1,北,2.9,北北東,14.6,88.9,0,0,0,0.5,0,0,1009.2,1023.2
14,2019-10-07T00:13:00,0.9,北,2.9,北北東,14.5,88.5,0,0,0,0.5,0,0,1009.2,1023.2
15,2019-10-07T00:14:00,0.9,北,2.9,北北東,14.5,89.8,0,0,0,0.5,0,0,1009.2,1023.2
16,2019-10-07T00:15:00,0.8,北北西,2.9,北北東,14.5,89.8,0,0,0,0.5,0,0,1009.1,1023.1
17,2019-10-07T00:16:00,0.8,北北西,2.9,北北東,14.6,90.5,0,0,0,0.5,0,0,1009.1,1023.1
18,2019-10-07T00:17:00,0.7,北北西,2.9,北北東,14.6,90.7,0,0,0,0.5,0,0,1009.1,1023.1
19,2019-10-07T00:18:00,0.7,北北西,2.9,北北東,14.7,91.2,0,0,0,0.5,0,0,1009.1,1023.1
20,2019-10-07T00:19:00,0.6,北北西,1.8,北東,14.7,90.6,0,0,0,0.5,0,0,1009.1,1023.1
21,2019-10-07T00:20:00,0.5,北北西,1.8,北東,14.7,90.7,0,0,0,0.5,0,0,1009,1023
22,2019-10-07T00:21:00,0.4,北西,1.2,北,14.7,90.7,0,0,0,0.5,0,0,1009,1023
23,2019-10-07T00:22:00,0.4,北西,1,北西,14.6,90.4,0,0,0,0.5,0,0,1008.9,1022.9
24,2019-10-07T00:23:00,0.5,北北西,1.4,北北東,14.5,90,0,0,0,0.5,0,0,1008.9,1022.9
25,2019-10-07T00:24:00,0.5,北北西,1.4,北北東,14.6,90.7,0,0,0,0.5,0,0,1008.8,1022.8
26,2019-10-07T00:25:00,0.6,北北西,1.5,北北東,14.6,91,0,0,0,0.5,0,0,1008.7,1022.7
27,2019-10-07T00:26:00,0.5,北北西,1.5,北北東,14.7,90.9,0,0,0,0.5,0,0,1008.7,1022.7
28,2019-10-07T00:27:00,0.6,北北西,1.6,北西,14.9,91.2,0,0,0,0.5,0,0,1008.7,1022.6
29,2019-10-07T00:28:00,0.6,北北西,1.7,西北西,14.8,90.4,0,0,0,0.5,0,0,1008.8,1022.8
30,2019-10-07T00:29:00,0.7,北北西,1.7,西北西,14.6,89.6,0,0,0,0.5,0,0,1008.8,1022.8
31,2019-10-07T00:30:00,0.7,北北西,1.7,西北西,14.5,89.7,0,0,0,0.5,0,0,1008.8,1022.8
32,2019-10-07T00:31:00,0.9,北北西,1.7,西北西,14.6,90,0,0,0,0.5,0,0,1008.8,1022.8
33,2019-10-07T00:32:00,0.9,北西,1.7,西北西,14.6,90.3,0,0,0,0.5,0,0,1008.8,1022.8
34,2019-10-07T00:33:00,1,北西,1.7,西北西,14.6,90.4,0,0,0,0.5,0,0,1008.8,1022.8
35,2019-10-07T00:34:00,1,西北西,1.7,西北西,14.7,90.4,0,0,0,0.5,0,0,1008.8,1022.8
36,2019-10-07T00:35:00,1,西北西,1.7,西北西,14.7,90.2,0,0,0,0.5,0,0,1008.8,1022.8
37,2019-10-07T00:36:00,1.1,西北西,1.7,西北西,14.5,89.7,0,0,0,0.5,0,0,1008.8,1022.8
38,2019-10-07T00:37:00,1.2,西北西,1.9,西,14.5,89.4,0,0,0,0.5,0,0,1008.9,1022.9
39,2019-10-07T00:38:00,1.2,西北西,1.9,西,14.5,89.7,0,0,0,0.5,0,0,1008.9,1022.9
40,2019-10-07T00:39:00,1.3,西北西,1.9,西,14.3,89.4,0,0,0,0.5,0,0,1008.9,1022.9
41,2019-10-07T00:40:00,1.3,西,1.9,西,14.3,89.6,0,0,0,0.5,0,0,1008.9,1022.9
42,2019-10-07T00:41:00,1.2,西,1.9,西,14.2,90.1,0,0,0,0.5,0,0,1008.9,1022.9
43,2019-10-07T00:42:00,1.2,西,1.9,西,14.3,90.6,0,0,0,0.5,0,0,1008.9,1022.9
44,2019-10-07T00:43:00,1.1,西北西,1.9,西,14.3,90.9,0,0,0,0.5,0,0,1008.9,1022.9
45,2019-10-07T00:44:00,1.1,西北西,1.9,西,14.3,91.1,0,0,0,0.5,0,0,1008.9,1022.9
46,2019-10-07T00:45:00,1,西北西,1.9,西,14.3,91.2,0,0,0,0.5,0,0,1008.9,1022.9
47,2019-10-07T00:46:00,1,西北西,1.9,西,14.4,91.5,0,0,0,0.5,0,0,1008.9,1022.9
48,2019-10-07T00:47:00,0.9,西北西,1.7,西,14.3,91.2,0,0,0,0.5,0,0,1008.8,1022.8
49,2019-10-07T00:48:00,0.9,西北西,1.5,西,14.4,91.2,0,0,0,0.5,0,0,1008.9,1022.9
50,2019-10-07T00:49:00,0.8,西北西,1.6,西北西,14.4,90.9,0,0,0,0.5,0,0,1008.9,1022.9
51,2019-10-07T00:50:00,0.9,西北西,1.7,西北西,14.3,90,0,0,0,0.5,0,0,1008.9,1022.9
52,2019-10-07T00:51:00,0.9,西北西,1.7,西北西,14.4,89.9,0,0,0,0.5,0,0,1008.9,1022.9
53,2019-10-07T00:52:00,1,西北西,1.7,西北西,14.1,89.3,0,0,0,0.5,0,0,1008.9,1022.9
54,2019-10-07T00:53:00,1.1,西北西,1.9,西,14.2,89.7,0,0,0,0.5,0,0,1008.9,1022.9
55,2019-10-07T00:54:00,1.2,西北西,1.9,西,14.2,90,0,0,0,0.5,0,0,1008.9,1022.9
56,2019-10-07T00:55:00,1.2,西北西,1.9,西,14.3,90.2,0,0,0,0.5,0,0,1009,1023
57,2019-10-07T00:56:00,1.3,西北西,1.9,西,14.5,90.5,0,0,0,0.5,0,0,1009,1023
58,2019-10-07T00:57:00,1.3,西北西,1.9,西,14.6,90.2,0,0,0,0.5,0,0,1009,1023
59,2019-10-07T00:58:00,1.3,西北西,1.9,西,14.6,89.4,0,0,0,0.5,0,0,1009,1023
60,2019-10-07T00:59:00,1.3,西北西,1.9,西,14.5,88.7,0,0,0,0.5,0,0,1009,1023
61,2019-10-07T01:00:00,1.3,西北西,1.9,西,14.5,88.6,0,0,0,0.5,0,0,1009,1023
62,2019-10-07T01:01:00,1.2,西北西,1.9,西,14.4,88.3,0,0,0,0.5,0,0,1009,1023
63,2019-10-07T01:02:00,1,西北西,1.9,西,14.4,88.7,0,0,0,0.5,0,0,1009,1023
64,2019-10-07T01:03:00,0.9,北西,1.8,西,14.4,89.2,0,0,0,0.5,0,0,1009,1023
65,2019-10-07T01:04:00,0.7,北西,1.7,西北西,14.4,89.7,0,0,0,0.5,0,0,1009.1,1023.1
66,2019-10-07T01:05:00,0.6,北北西,1.7,西北西,14.4,89.7,0,0,0,0.5,0,0,1009.1,1023.1
67,2019-10-07T01:06:00,0.6,北北西,1.4,西,14.5,90.4,0,0,0,0.5,0,0,1009.1,1023.1
68,2019-10-07T01:07:00,0.5,北,1.2,西北西,14.5,90.5,0,0,0,0.5,0,0,1009.1,1023.1
69,2019-10-07T01:08:00,0.5,北,1.6,北東,14.5,90.5,0,0,0,0.5,0,0,1009.1,1023.1
70,2019-10-07T01:09:00,0.5,北北東,1.6,北東,14.7,90.2,0,0,0,0.5,0,0,1009.1,1023.1
71,2019-10-07T01:10:00,0.6,北北東,1.6,北東,14.6,89.5,0,0,0,0.5,0,0,1009.1,1023.1
72,2019-10-07T01:11:00,0.7,北北東,1.6,北東,14.5,89,0,0,0,0.5,0,0,1009.1,1023.1
73,2019-10-07T01:12:00,0.8,北北東,1.6,北東,14.4,89.1,0,0,0,0.5,0,0,1009.1,1023.1
74,2019-10-07T01:13:00,0.8,北北東,1.6,北東,14.3,89.4,0,0,0,0.5,0,0,1009.1,1023.1
75,2019-10-07T01:14:00,0.9,北北東,1.6,北東,14.2,89.6,0,0,0,0.5,0,0,1009.1,1023.1
76,2019-10-07T01:15:00,0.9,北北東,1.6,北東,14.4,90.4,0,0,0,0.5,0,0,1009.1,1023.1
77,2019-10-07T01:16:00,0.9,北北東,1.6,北東,14.5,91.4,0,0,0,0.5,0,0,1009.1,1023.1
78,2019-10-07T01:17:00,1,北北東,1.6,北東,14.5,91,0,0,0,0.5,0,0,1009.1,1023.1
79,2019-10-07T01:18:00,0.9,北北東,1.6,北北東,14.4,90.6,0,0,0,0.5,0,0,1009.1,1023.1
80,2019-10-07T01:19:00,0.8,北北東,1.6,北北東,14.5,90.7,0,0,0,0.5,0,0,1009,1023
81,2019-10-07T01:20:00,0.7,北北東,1.6,北北東,14.4,90.5,0,0,0,0.5,0,0,1009,1023
82,2019-10-07T01:21:00,0.6,北北東,1.6,北北東,14.3,90.2,0,0,0,0.5,0,0,1009,1023
83,2019-10-07T01:22:00,0.6,北北東,1.3,北東,14.5,91,0,0,0,0.5,0,0,1009,1023
84,2019-10-07T01:23:00,0.5,北北東,1.3,北東,14.3,90.7,0,0,0,0.5,0,0,1009,1023
85,2019-10-07T01:24:00,0.5,北,1.3,北東,14.3,90.6,0,0,0,0.5,0,0,1009,1023
86,2019-10-07T01:25:00,0.5,北,1.3,北東,14.2,90.6,0,0,0,0.5,0,0,1008.9,1022.9
87,2019-10-07T01:26:00,0.4,北,1.3,北北東,14.2,90.7,0,0,0,0.5,0,0,1008.9,1022.9
88,2019-10-07T01:27:00,0.4,北,1.3,北北東,14.2,91.2,0,0,0,0.5,0,0,1008.9,1022.9
89,2019-10-07T01:28:00,0.3,北北西,1.3,北北東,14.2,91.6,0,0,0,0.5,0,0,1008.9,1022.9
90,2019-10-07T01:29:00,0.3,北,1.3,北北東,14.1,91.4,0,0,0,0.5,0,0,1008.9,1022.9
91,2019-10-07T01:30:00,0.3,北,1.3,北北東,14,91.6,0,0,0,0.5,0,0,1008.9,1022.9
92,2019-10-07T01:31:00,0.3,北,1.3,北北東,14.1,92,0,0,0,0.5,0,0,1008.9,1022.9
93,2019-10-07T01:32:00,0.3,北,1.3,北北東,14.3,92.6,0,0,0,0.5,0,0,1008.9,1022.9
94,2019-10-07T01:33:00,0.3,北北東,1.3,北北東,14.1,92.4,0,0,0,0.5,0,0,1008.8,1022.8
95,2019-10-07T01:34:00,0.3,北北東,1.3,北北東,14.5,92.8,0,0,0,0.5,0,0,1008.8,1022.8
96,2019-10-07T01:35:00,0.3,北東,1.3,北北東,14.4,92.1,0,0,0,0.5,0,0,1008.8,1022.8
97,2019-10-07T01:36:00,0.3,北東,1,北北東,14.5,91.7,0,0,0,0.5,0,0,1008.7,1022.7
98,2019-10-07T01:37:00,0.3,北東,1,北北東,14.4,91.4,0,0,0,0.5,0,0,1008.7,1022.7
99,2019-10-07T01:38:00,0.4,北東,1.1,北東,14.5,91.2,0,0,0,0.5,0,0,1008.7,1022.7
100,2019-10-07T01:39:00,0.5,北東,1.1,北東,14.3,90.6,0,0,0,0.5,0,0,1008.7,1022.7
101,2019-10-07T01:40:00,0.5,北東,1.1,北東,14.4,90.8,0,0,0,0.5,0,0,1008.7,1022.7
102,2019-10-07T01:41:00,0.5,北東,1.1,北東,14.3,90.9,0,0,0,0.5,0,0,1008.7,1022.7
103,2019-10-07T01:42:00,0.5,北東,1.1,北東,14.4,91.4,0,0,0,0.5,0,0,1008.7,1022.7
104,2019-10-07T01:43:00,0.5,北東,1.1,北東,14.2,91.2,0,0,0,0.5,0,0,1008.7,1022.7
105,2019-10-07T01:44:00,0.4,北東,1.1,北東,14.2,91.4,0,0,0,0.5,0,0,1008.6,1022.6
106,2019-10-07T01:45:00,0.4,北東,1.1,北東,14.2,91.5,0,0,0,0.5,0,0,1008.6,1022.6
107,2019-10-07T01:46:00,0.4,北東,1.1,北東,14.1,91.6,0,0,0,0.5,0,0,1008.6,1022.6
108,2019-10-07T01:47:00,0.3,北北東,1.1,北東,14.3,92,0,0,0,0.5,0,0,1008.6,1022.6
109,2019-10-07T01:48:00,0.2,静穏,1.1,北東,14.3,91.9,0,0,0,0.5,0,0,1008.7,1022.7
110,2019-10-07T01:49:00,0.2,静穏,0.9,北東,14.3,91.7,0,0,0,0.5,0,0,1008.7,1022.7
111,2019-10-07T01:50:00,0.1,静穏,0.9,北東,14.1,91.3,0,0,0,0.5,0,0,1008.6,1022.6
112,2019-10-07T01:51:00,0.1,静穏,0.8,北西,14.1,91.5,0,0,0,0.5,0,0,1008.6,1022.6
113,2019-10-07T01:52:00,0.2,静穏,0.8,西,14,91.7,0,0,0,0.5,0,0,1008.6,1022.6
114,2019-10-07T01:53:00,0.2,静穏,0.8,西,14,91.9,0,0,0,0.5,0,0,1008.6,1022.6
115,2019-10-07T01:54:00,0.3,北西,0.8,西,13.9,91.6,0,0,0,0.5,0,0,1008.6,1022.6
116,2019-10-07T01:55:00,0.3,北西,0.8,西,14,92,0,0,0,0.5,0,0,1008.6,1022.6
117,2019-10-07T01:56:00,0.3,北西,0.8,西,14,92.4,0,0,0,0.5,0,0,1008.6,1022.6
118,2019-10-07T01:57:00,0.3,北西,0.9,北西,14.2,92.8,0,0,0,0.5,0,0,1008.7,1022.7
119,2019-10-07T01:58:00,0.4,北西,1,西北西,14.1,92.6,0,0,0,0.5,0,0,1008.7,1022.7
120,2019-10-07T01:59:00,0.5,北西,1.2,西北西,14,92.1,0,0,0,0.5,0,0,1008.7,1022.7
121,2019-10-07T02:00:00,0.6,西北西,1.4,西北西,14,92.1,0,0,0,0.5,0,0,1008.7,1022.7
122,2019-10-07T02:01:00,0.6,西北西,1.4,西北西,13.9,91.2,0,0,0,0.5,0,0,1008.7,1022.7
123,2019-10-07T02:02:00,0.6,西北西,1.4,西北西,13.8,91.3,0,0,0,0.5,0,0,1008.7,1022.7
124,2019-10-07T02:03:00,0.7,西北西,1.6,西,13.9,91.7,0,0,0,0.5,0,0,1008.8,1022.8
125,2019-10-07T02:04:00,0.8,西北西,1.7,西,13.9,91.5,0,0,0,0.5,0,0,1008.8,1022.8
126,2019-10-07T02:05:00,0.9,西北西,1.7,西,13.7,91,0,0,0,0.5,0,0,1008.8,1022.8
127,2019-10-07T02:06:00,1,西北西,1.7,西,14.1,92.3,0,0,0,0.5,0,0,1008.8,1022.8
128,2019-10-07T02:07:00,1.1,西北西,1.7,西,14,92.1,0,0,0,0.5,0,0,1008.8,1022.8
129,2019-10-07T02:08:00,1,西,1.7,西,13.8,91.1,0,0,0,0.5,0,0,1008.8,1022.8
130,2019-10-07T02:09:00,1.1,西,1.7,西,13.7,91.1,0,0,0,0.5,0,0,1008.8,1022.8
131,2019-10-07T02:10:00,1,西,1.7,西,13.9,91.7,0,0,0,0.5,0,0,1008.8,1022.8
132,2019-10-07T02:11:00,1,西,1.7,西,13.9,92.2,0,0,0,0.5,0,0,1008.8,1022.8
133,2019-10-07T02:12:00,1,西北西,1.7,西,13.9,92.3,0,0,0,0.5,0,0,1008.8,1022.8
134,2019-10-07T02:13:00,0.9,西,1.7,西,13.9,91.8,0,0,0,0.5,0,0,1008.8,1022.8
135,2019-10-07T02:14:00,0.9,西北西,1.5,西,13.8,91.8,0,0,0,0.5,0,0,1008.8,1022.8
136,2019-10-07T02:15:00,0.9,西北西,1.3,西北西,13.8,91.5,0,0,0,0.5,0,0,1008.8,1022.8
137,2019-10-07T02:16:00,0.9,西北西,1.3,西北西,13.9,91.8,0,0,0,0.5,0,0,1008.8,1022.8
138,2019-10-07T02:17:00,0.8,西北西,1.3,西北西,13.7,91.7,0,0,0,0.5,0,0,1008.8,1022.8
139,2019-10-07T02:18:00,0.8,西北西,1.3,西北西,13.7,91.5,0,0,0,0.5,0,0,1008.8,1022.8
140,2019-10-07T02:19:00,0.9,西北西,1.3,西北西,13.6,91.7,0,0,0,0.5,0,0,1008.8,1022.8
141,2019-10-07T02:20:00,0.8,西北西,1.3,西北西,13.7,91.8,0,0,0,0.5,0,0,1008.7,1022.7
142,2019-10-07T02:21:00,0.8,西北西,1.3,西北西,13.7,92.1,0,0,0,0.5,0,0,1008.7,1022.7
143,2019-10-07T02:22:00,0.8,西北西,1.3,西北西,13.6,92,0,0,0,0.5,0,0,1008.7,1022.7
144,2019-10-07T02:23:00,0.8,西北西,1.3,西北西,13.7,92.4,0,0,0,0.5,0,0,1008.7,1022.7
145,2019-10-07T02:24:00,0.8,西北西,1.3,西北西,13.6,92.2,0,0,0,0.5,0,0,1008.7,1022.7
146,2019-10-07T02:25:00,0.7,西北西,1.3,西北西,13.7,92,0,0,0,0.5,0,0,1008.7,1022.7
147,2019-10-07T02:26:00,0.6,西北西,1.2,西北西,13.7,92.3,0,0,0,0.5,0,0,1008.7,1022.7
148,2019-10-07T02:27:00,0.6,西北西,1.2,西北西,13.7,92.4,0,0,0,0.5,0,0,1008.7,1022.7
149,2019-10-07T02:28:00,0.5,西北西,1.1,西,13.9,92.9,0,0,0,0.5,0,0,1008.7,1022.7
150,2019-10-07T02:29:00,0.4,西北西,1,西北西,13.9,93,0,0,0,0.5,0,0,1008.7,1022.7
151,2019-10-07T02:30:00,0.4,北西,0.7,北東,13.8,92.4,0,0,0,0.5,0,0,1008.7,1022.7
152,2019-10-07T02:31:00,0.3,北西,0.7,北東,13.8,92.1,0,0,0,0.5,0,0,1008.7,1022.7
153,2019-10-07T02:32:00,0.3,北西,0.8,北西,13.7,91.8,0,0,0,0.5,0,0,1008.7,1022.7
154,2019-10-07T02:33:00,0.3,北西,0.8,北西,13.7,91.6,0,0,0,0.5,0,0,1008.7,1022.7
155,2019-10-07T02:34:00,0.3,北西,0.8,北西,13.7,91.6,0,0,0,0.5,0,0,1008.7,1022.7
156,2019-10-07T02:35:00,0.3,北西,0.8,北西,13.6,91.6,0,0,0,0.5,0,0,1008.7,1022.7
157,2019-10-07T02:36:00,0.3,北西,0.8,北西,13.7,91.9,0,0,0,0.5,0,0,1008.7,1022.7
158,2019-10-07T02:37:00,0.3,北西,0.8,北西,13.6,91.9,0,0,0,0.5,0,0,1008.7,1022.7
159,2019-10-07T02:38:00,0.3,北西,0.8,北西,13.6,91.8,0,0,0,0.5,0,0,1008.7,1022.7
160,2019-10-07T02:39:00,0.3,北西,0.8,北西,13.6,92.1,0,0,0,0.5,0,0,1008.7,1022.7
161,2019-10-07T02:40:00,0.3,北西,0.8,北西,13.5,91.8,0,0,0,0.5,0,0,1008.7,1022.7
162,2019-10-07T02:41:00,0.3,北西,0.8,北西,13.7,92.6,0,0,0,0.5,0,0,1008.7,1022.7
163,2019-10-07T02:42:00,0.2,静穏,0.8,西北西,13.7,93,0,0,0,0.5,0,0,1008.6,1022.6
164,2019-10-07T02:43:00,0.2,静穏,0.7,西北西,13.6,92.8,0,0,0,0.5,0,0,1008.6,1022.6
165,2019-10-07T02:44:00,0.2,静穏,0.5,西,13.6,92.8,0,0,0,0.5,0,0,1008.6,1022.6
166,2019-10-07T02:45:00,0.2,静穏,0.6,北,13.6,92.9,0,0,0,0.5,0,0,1008.6,1022.6
167,2019-10-07T02:46:00,0.1,静穏,0.6,北,13.6,93,0,0,0,0.5,0,0,1008.6,1022.6
168,2019-10-07T02:47:00,0.1,静穏,0.6,北,13.7,93.2,0,0,0,0.5,0,0,1008.6,1022.6
169,2019-10-07T02:48:00,0.1,静穏,0.6,北,13.7,93.3,0,0,0,0.5,0,0,1008.6,1022.6
170,2019-10-07T02:49:00,0.1,静穏,0.6,北,13.9,93.9,0,0,0,0.5,0,0,1008.5,1022.5
171,2019-10-07T02:50:00,0.2,静穏,0.6,北,13.6,93.5,0,0,0,0.5,0,0,1008.5,1022.5
172,2019-10-07T02:51:00,0.2,静穏,0.6,北,13.5,92.5,0,0,0,0.5,0,0,1008.5,1022.5
173,2019-10-07T02:52:00,0.3,北西,0.6,北,13.5,92.8,0,0,0,0.5,0,0,1008.5,1022.5
174,2019-10-07T02:53:00,0.3,北西,1.2,西北西,13.6,93.3,0,0,0,0.5,0,0,1008.5,1022.5
175,2019-10-07T02:54:00,0.4,北西,1.2,西北西,13.5,93.6,0,0,0,0.5,0,0,1008.5,1022.5
176,2019-10-07T02:55:00,0.5,西北西,1.2,西北西,13.5,93.4,0,0,0,0.5,0,0,1008.5,1022.5
177,2019-10-07T02:56:00,0.5,西北西,1.2,西北西,13.6,93.6,0,0,0,0.5,0,0,1008.4,1022.4
178,2019-10-07T02:57:00,0.6,西北西,1.2,西北西,13.6,93.8,0,0,0,0.5,0,0,1008.4,1022.4
179,2019-10-07T02:58:00,0.7,西北西,1.2,西北西,13.4,93.2,0,0,0,0.5,0,0,1008.4,1022.4
180,2019-10-07T02:59:00,0.7,西北西,1.2,西北西,13.4,93.1,0,0,0,0.5,0,0,1008.4,1022.4
181,2019-10-07T03:00:00,0.7,西北西,1.2,西北西,13.5,93.4,0,0,0,0.5,0,0,1008.3,1022.3
182,2019-10-07T03:01:00,0.7,西北西,1.2,西北西,13.4,93.1,0,0,0,0.5,0,0,1008.3,1022.3
183,2019-10-07T03:02:00,0.6,西北西,1.2,西北西,13.4,93.2,0,0,0,0.5,0,0,1008.3,1022.3
184,2019-10-07T03:03:00,0.6,西北西,1.1,北西,13.4,93.3,0,0,0,0.5,0,0,1008.3,1022.3
185,2019-10-07T03:04:00,0.5,西北西,1.1,北西,13.5,93.6,0,0,0,0.5,0,0,1008.3,1022.3
186,2019-10-07T03:05:00,0.4,西北西,1.1,北西,13.5,93.8,0,0,0,0.5,0,0,1008.3,1022.3
187,2019-10-07T03:06:00,0.4,北西,1.1,北西,13.6,93.6,0,0,0,0.5,0,0,1008.3,1022.3
188,2019-10-07T03:07:00,0.3,北西,1.1,北西,13.7,93.4,0,0,0,0.5,0,0,1008.3,1022.3
189,2019-10-07T03:08:00,0.3,北西,0.7,西北西,13.6,93.3,0,0,0,0.5,0,0,1008.3,1022.3
190,2019-10-07T03:09:00,0.2,静穏,0.7,西北西,13.5,92.6,0,0,0,0.5,0,0,1008.3,1022.3
191,2019-10-07T03:10:00,0.2,静穏,0.5,北北西,13.5,92.8,0,0,0,0.5,0,0,1008.3,1022.3
192,2019-10-07T03:11:00,0.2,静穏,0.5,北北西,13.5,92.6,0,0,0,0.5,0,0,1008.3,1022.3
193,2019-10-07T03:12:00,0.1,静穏,0.5,北北西,13.6,93.1,0,0,0,0.5,0,0,1008.3,1022.3
194,2019-10-07T03:13:00,0.1,静穏,0.5,北北西,13.6,93.4,0,0,0,0.5,0,0,1008.3,1022.3
195,2019-10-07T03:14:00,0.2,静穏,0.5,北北西,13.5,93.3,0,0,0,0.5,0,0,1008.3,1022.3
196,2019-10-07T03:15:00,0.2,静穏,0.5,北北西,13.5,93.3,0,0,0,0.5,0,0,1008.3,1022.3
197,2019-10-07T03:16:00,0.1,静穏,0.4,西南西,13.4,93.1,0,0,0,0.5,0,0,1008.3,1022.3
198,2019-10-07T03:17:00,0.2,静穏,0.4,西南西,13.3,92.8,0,0,0,0.5,0,0,1008.3,1022.3
199,2019-10-07T03:18:00,0.2,静穏,0.7,西北西,13.3,92.8,0,0,0,0.5,0,0,1008.3,1022.3
200,2019-10-07T03:19:00,0.2,静穏,0.7,西北西,13.3,93.2,0,0,0,0.5,0,0,1008.3,1022.3
201,2019-10-07T03:20:00,0.2,静穏,0.7,西北西,13.2,93.4,0,0,0,0.5,0,0,1008.3,1022.3
202,2019-10-07T03:21:00,0.2,静穏,0.7,西北西,13.3,94,0,0,0,0.5,0,0,1008.3,1022.3
203,2019-10-07T03:22:00,0.3,北西,0.7,西北西,13.4,94.5,0,0,0,0.5,0,0,1008.2,1022.2
204,2019-10-07T03:23:00,0.3,北西,0.7,西北西,13.3,94.3,0,0,0,0.5,0,0,1008.2,1022.2
205,2019-10-07T03:24:00,0.3,北西,0.7,西北西,13.3,94.2,0,0,0,0.5,0,0,1008.2,1022.2
206,2019-10-07T03:25:00,0.3,北西,0.7,西北西,13.5,94.6,0,0,0,0.5,0,0,1008.3,1022.3
207,2019-10-07T03:26:00,0.3,北西,0.7,西北西,13.4,94.6,0,0,0,0.5,0,0,1008.3,1022.3
208,2019-10-07T03:27:00,0.3,北西,0.7,西北西,13.4,94.3,0,0,0,0.5,0,0,1008.3,1022.3
209,2019-10-07T03:28:00,0.3,北西,0.5,北西,13.3,94.3,0,0,0,0.5,0,0,1008.3,1022.3
210,2019-10-07T03:29:00,0.3,北西,0.5,北西,13.3,94,0,0,0,0.5,0,0,1008.3,1022.3
211,2019-10-07T03:30:00,0.3,北西,0.8,西北西,13.3,93.4,0,0,0,0.5,0,0,1008.2,1022.2
212,2019-10-07T03:31:00,0.3,北西,0.9,西,13.3,93.2,0,0,0,0.5,0,0,1008.2,1022.2
213,2019-10-07T03:32:00,0.4,北西,1,西北西,13.2,93.1,0,0,0,0.5,0,0,1008.2,1022.2
214,2019-10-07T03:33:00,0.4,西北西,1,西北西,13.3,93.4,0,0,0,0.5,0,0,1008.2,1022.2
215,2019-10-07T03:34:00,0.5,西北西,1,西北西,13.2,93.6,0,0,0,0.5,0,0,1008.2,1022.2
216,2019-10-07T03:35:00,0.5,西北西,1,西北西,13.2,93.5,0,0,0,0.5,0,0,1008.3,1022.3
217,2019-10-07T03:36:00,0.6,西北西,1,西北西,13.3,93.8,0,0,0,0.5,0,0,1008.3,1022.3
218,2019-10-07T03:37:00,0.6,西北西,1,西北西,13.1,93.8,0,0,0,0.5,0,0,1008.3,1022.3
219,2019-10-07T03:38:00,0.7,西,1,西北西,13.1,93.5,0,0,0,0.5,0,0,1008.3,1022.3
220,2019-10-07T03:39:00,0.7,西,1,西北西,13.1,93.8,0,0,0,0.5,0,0,1008.3,1022.3
221,2019-10-07T03:40:00,0.7,西,1,西北西,13.1,93.9,0,0,0,0.5,0,0,1008.3,1022.3
222,2019-10-07T03:41:00,0.7,西,1,西北西,13.2,94.3,0,0,0,0.5,0,0,1008.2,1022.2
223,2019-10-07T03:42:00,0.7,西,1.1,西北西,13.2,94,0,0,0,0.5,0,0,1008.2,1022.2
224,2019-10-07T03:43:00,0.7,西,1.1,西北西,13.2,93.8,0,0,0,0.5,0,0,1008.2,1022.2
225,2019-10-07T03:44:00,0.7,西北西,1.2,西北西,13.1,93.5,0,0,0,0.5,0,0,1008.2,1022.2
226,2019-10-07T03:45:00,0.7,西北西,1.2,西北西,13.2,93.3,0,0,0,0.5,0,0,1008.2,1022.2
227,2019-10-07T03:46:00,0.7,西,1.2,西北西,13.1,93.5,0,0,0,0.5,0,0,1008.2,1022.2
228,2019-10-07T03:47:00,0.8,西,1.2,西北西,13.2,93.6,0,0,0,0.5,0,0,1008.2,1022.2
229,2019-10-07T03:48:00,0.8,西,1.2,西北西,13.1,93.6,0,0,0,0.5,0,0,1008.2,1022.2
230,2019-10-07T03:49:00,0.8,西,1.2,西北西,13.1,93,0,0,0,0.5,0,0,1008.2,1022.2
231,2019-10-07T03:50:00,0.7,西,1.2,西北西,13.1,93,0,0,0,0.5,0,0,1008.2,1022.2
232,2019-10-07T03:51:00,0.7,西,1.2,西北西,13.1,93.5,0,0,0,0.5,0,0,1008.2,1022.2
233,2019-10-07T03:52:00,0.7,西,1.2,西北西,13.1,93.8,0,0,0,0.5,0,0,1008.2,1022.2
234,2019-10-07T03:53:00,0.7,西,1.2,西北西,13.3,94.3,0,0,0,0.5,0,0,1008.2,1022.2
235,2019-10-07T03:54:00,0.6,西北西,1,西,13.3,94.8,0,0,0,0.5,0,0,1008.2,1022.2
236,2019-10-07T03:55:00,0.6,西北西,1,西,13.4,94.7,0,0,0,0.5,0,0,1008.2,1022.2
237,2019-10-07T03:56:00,0.6,西北西,1,西,13.3,94.3,0,0,0,0.5,0,0,1008.2,1022.2
238,2019-10-07T03:57:00,0.6,西北西,0.9,西北西,13.2,93.9,0,0,0,0.5,0,0,1008.1,1022.1
239,2019-10-07T03:58:00,0.6,西北西,0.9,西北西,13.2,93.5,0,0,0,0.5,0,0,1008.1,1022.1
240,2019-10-07T03:59:00,0.6,西北西,0.9,西北西,13.2,93.5,0,0,0,0.5,0,0,1008.1,1022.1
241,2019-10-07T04:00:00,0.7,西北西,1.3,西北西,13.2,93.7,0,0,0,0.5,0,0,1008.1,1022.1
242,2019-10-07T04:01:00,0.8,西北西,1.7,西北西,13.1,93.5,0,0,0,0.5,0,0,1008.1,1022.1
243,2019-10-07T04:02:00,0.9,西北西,1.8,西,13.2,93.3,0,0,0,0.5,0,0,1008.2,1022.2
244,2019-10-07T04:03:00,1,西北西,2,西北西,13.1,92.9,0,0,0,0.5,0,0,1008.2,1022.2
245,2019-10-07T04:04:00,1.1,西北西,2,西北西,13.1,92.7,0,0,0,0.5,0,0,1008.3,1022.3
246,2019-10-07T04:05:00,1.2,西北西,2,西北西,13.1,92.5,0,0,0,0.5,0,0,1008.3,1022.3
247,2019-10-07T04:06:00,1.2,西北西,2,西北西,13.1,92.1,0,0,0,0.5,0,0,1008.3,1022.3
248,2019-10-07T04:07:00,1.3,西北西,2,西北西,13.2,92.1,0,0,0,0.5,0,0,1008.3,1022.3
249,2019-10-07T04:08:00,1.4,西北西,2,西北西,13.1,92.3,0,0,0,0.5,0,0,1008.4,1022.4
250,2019-10-07T04:09:00,1.4,西北西,2,西北西,13.2,92.2,0,0,0,0.5,0,0,1008.3,1022.3
251,2019-10-07T04:10:00,1.4,西北西,2,西北西,13.1,92.2,0,0,0,0.5,0,0,1008.3,1022.3
252,2019-10-07T04:11:00,1.4,西,2,西北西,13.1,92.5,0,0,0,0.5,0,0,1008.3,1022.3
253,2019-10-07T04:12:00,1.3,西,2,西北西,13.1,92.5,0,0,0,0.5,0,0,1008.3,1022.3
254,2019-10-07T04:13:00,1.2,西,1.9,西,13.1,92.7,0,0,0,0.5,0,0,1008.3,1022.3
255,2019-10-07T04:14:00,1.2,西,1.9,西,13.1,92.9,0,0,0,0.5,0,0,1008.3,1022.3
256,2019-10-07T04:15:00,1.1,西,1.9,西,13,93,0,0,0,0.5,0,0,1008.3,1022.3
257,2019-10-07T04:16:00,1.1,西,1.6,西,13.1,93.3,0,0,0,0.5,0,0,1008.3,1022.3
258,2019-10-07T04:17:00,1,西,1.4,西北西,13.1,93.8,0,0,0,0.5,0,0,1008.2,1022.2
259,2019-10-07T04:18:00,1,西,1.4,西北西,13.1,93.5,0,0,0,0.5,0,0,1008.2,1022.2
260,2019-10-07T04:19:00,0.9,西,1.4,西北西,13.1,93.7,0,0,0,0.5,0,0,1008.1,1022.1
261,2019-10-07T04:20:00,0.9,西,1.4,西北西,13,93.5,0,0,0,0.5,0,0,1008,1022
262,2019-10-07T04:21:00,0.8,西北西,1.4,西北西,12.9,93,0,0,0,0.5,0,0,1008,1022
263,2019-10-07T04:22:00,0.8,西北西,1.4,西北西,12.9,93.2,0,0,0,0.5,0,0,1008,1022
264,2019-10-07T04:23:00,0.8,西北西,1.4,西北西,12.8,93.4,0,0,0,0.5,0,0,1008,1022
265,2019-10-07T04:24:00,0.7,西北西,1.3,西北西,12.8,93.8,0,0,0,0.5,0,0,1008,1022
266,2019-10-07T04:25:00,0.7,西北西,1.1,北西,13,94.1,0,0,0,0.5,0,0,1008,1022
267,2019-10-07T04:26:00,0.6,西北西,1.1,北西,13,94.4,0,0,0,0.5,0,0,1008,1022
268,2019-10-07T04:27:00,0.6,西北西,1.1,北西,13,94.4,0,0,0,0.5,0,0,1008,1022
269,2019-10-07T04:28:00,0.7,西北西,1.1,北西,13,94.3,0,0,0,0.5,0,0,1008.1,1022.1
270,2019-10-07T04:29:00,0.7,西北西,1.1,北西,13.1,94.5,0,0,0,0.5,0,0,1008.1,1022.1
271,2019-10-07T04:30:00,0.7,西北西,1.1,北西,13.1,94.8,0,0,0,0.5,0,0,1008.1,1022.1
272,2019-10-07T04:31:00,0.7,西北西,1.1,北西,13.1,94.6,0,0,0,0.5,0,0,1008.1,1022.1
273,2019-10-07T04:32:00,0.8,西北西,1.1,北西,13.2,94.8,0,0,0,0.5,0,0,1008,1022
274,2019-10-07T04:33:00,0.8,西北西,1.1,北西,13.1,94.7,0,0,0,0.5,0,0,1008,1022
275,2019-10-07T04:34:00,0.8,西北西,1.1,西北西,13,94,0,0,0,0.5,0,0,1008,1022
276,2019-10-07T04:35:00,0.8,西北西,1.1,西北西,13,93.9,0,0,0,0.5,0,0,1008,1022
277,2019-10-07T04:36:00,0.8,西,1.1,西北西,13,94.2,0,0,0,0.5,0,0,1008,1022
278,2019-10-07T04:37:00,0.8,西,1.1,西北西,13,94.2,0,0,0,0.5,0,0,1008,1022
279,2019-10-07T04:38:00,0.8,西,1.1,西北西,13,94.3,0,0,0,0.5,0,0,1008,1022
280,2019-10-07T04:39:00,0.7,西,1.1,西北西,13,94.4,0,0,0,0.5,0,0,1008,1022
281,2019-10-07T04:40:00,0.7,西,1.1,西北西,13.1,94.9,0,0,0,0.5,0,0,1008,1022
282,2019-10-07T04:41:00,0.6,西,1,西,13.3,95.1,0,0,0,0.5,0,0,1008,1022
283,2019-10-07T04:42:00,0.6,西,1,西,13.1,94.7,0,0,0,0.5,0,0,1008.1,1022.1
284,2019-10-07T04:43:00,0.5,西北西,0.9,西,13.2,94.5,0,0,0,0.5,0,0,1008.1,1022.1
285,2019-10-07T04:44:00,0.5,西北西,1,西,13.2,94.5,0,0,0,0.5,0,0,1008.1,1022.1
286,2019-10-07T04:45:00,0.5,西北西,1,西,13,94.2,0,0,0,0.5,0,0,1008.2,1022.2
287,2019-10-07T04:46:00,0.5,西北西,1,西,12.9,93.6,0,0,0,0.5,0,0,1008.2,1022.2
288,2019-10-07T04:47:00,0.4,西北西,1,西,13,94,0,0,0,0.5,0,0,1008.2,1022.2
289,2019-10-07T04:48:00,0.4,北西,1,西,13,94.3,0,0,0,0.5,0,0,1008.2,1022.2
290,2019-10-07T04:49:00,0.3,北西,1,西,12.9,94.2,0,0,0,0.5,0,0,1008.2,1022.2
291,2019-10-07T04:50:00,0.3,北西,1,西,13,94.6,0,0,0,0.5,0,0,1008.1,1022.1
292,2019-10-07T04:51:00,0.3,北北西,1,西,12.9,94.6,0,0,0,0.5,0,0,1008.1,1022.1
293,2019-10-07T04:52:00,0.2,静穏,1,西,12.8,94.1,0,0,0,0.5,0,0,1008.2,1022.2
294,2019-10-07T04:53:00,0.2,静穏,1,西,12.7,93.9,0,0,0,0.5,0,0,1008.2,1022.2
295,2019-10-07T04:54:00,0.2,静穏,0.6,南,12.7,94.2,0,0,0,0.5,0,0,1008.2,1022.2
296,2019-10-07T04:55:00,0.1,静穏,0.6,南,12.8,94.5,0,0,0,0.5,0,0,1008.2,1022.2
297,2019-10-07T04:56:00,0.1,静穏,0.6,南,13,95,0,0,0,0.5,0,0,1008.2,1022.2
298,2019-10-07T04:57:00,0.1,静穏,0.6,南,12.9,95.1,0,0,0,0.5,0,0,1008.2,1022.2
299,2019-10-07T04:58:00,0.1,静穏,0.6,南,12.8,94.5,0,0,0,0.5,0,0,1008.2,1022.2
300,2019-10-07T04:59:00,0.1,静穏,0.6,南,12.8,94.4,0,0,0,0.5,0,0,1008.2,1022.2
301,2019-10-07T05:00:00,0.1,静穏,0.6,南,13.1,94.8,0,0,0,0.5,0,0,1008.2,1022.2
302,2019-10-07T05:01:00,0.1,静穏,0.6,南,12.8,94.1,0,0,0,0.5,0,0,1008.3,1022.3
303,2019-10-07T05:02:00,0.1,静穏,0.5,南南西,12.9,93.7,0,0,0,0.5,0,0,1008.2,1022.2
304,2019-10-07T05:03:00,0.1,静穏,0.5,南南西,12.9,94.3,0,0,0,0.5,0,0,1008.2,1022.2
305,2019-10-07T05:04:00,0.2,静穏,0.7,西北西,13,94.3,0,0,0,0.5,0,0,1008.2,1022.2
306,2019-10-07T05:05:00,0.2,静穏,0.7,西北西,12.9,93.5,0,0,0,0.5,0,0,1008.2,1022.2
307,2019-10-07T05:06:00,0.2,静穏,0.7,西北西,12.8,93.3,0,0,0,0.5,0,0,1008.2,1022.2
308,2019-10-07T05:07:00,0.3,西,0.7,西北西,12.7,93.2,0,0,0,0.5,0,0,1008.2,1022.2
309,2019-10-07T05:08:00,0.3,西,0.7,西北西,12.6,93.3,0,0,0,0.5,0,0,1008.2,1022.3
310,2019-10-07T05:09:00,0.3,西,0.7,西北西,12.6,93.5,0,0,0,0.5,0,0,1008.2,1022.3
311,2019-10-07T05:10:00,0.4,西北西,0.7,西北西,12.7,93.9,0,0,0,0.5,0,0,1008.2,1022.2
312,2019-10-07T05:11:00,0.4,西北西,0.7,西北西,12.7,94.4,0,0,0,0.5,0,0,1008.2,1022.2
313,2019-10-07T05:12:00,0.4,西北西,0.7,西北西,12.6,94.2,0,0,0,0.5,0,0,1008.2,1022.3
314,2019-10-07T05:13:00,0.3,西北西,0.7,西北西,12.7,94.3,0,0,0,0.5,0,0,1008.3,1022.3
315,2019-10-07T05:14:00,0.3,西北西,0.7,西,12.6,94.5,0,0,0,0.5,0,0,1008.3,1022.4
316,2019-10-07T05:15:00,0.2,静穏,0.7,西,12.7,94.4,0,0,0,0.5,0,0,1008.3,1022.3
317,2019-10-07T05:16:00,0.2,静穏,0.7,西,12.8,95,0,0,0,0.5,0,0,1008.3,1022.3